STARLINK-2078 (47675 NORAD) Tracking and Keplerian Element Data

This shows tracking and keplerian element data for the satellite.

Feedback or suggestion? Click here.




ElementValue
Catalog47675
NameSTARLINK-2078
Epoch Orbit1005
Epoch Day106.16668981
Epoch Year2021
RAAN169.162
Inclination53.0476
Eccentricity0.0001349
Argument of Perigee57.7468
Mean Anonmoly42.6532
Mean Motion15.54117617
Decay Rate-0.00486058
L11 47675U 21012BH 21106.16668981 -.00486058 00000-0 -78085-2 0 9993
L22 47675 53.0476 169.1620 0001349 57.7468 42.6532 15.54117617 10051

Live tracking and technical data element details for STARLINK-2078 (NORAD 47675). STARLINK-2078 can be tracked NOW for your location showing map with azimuth and elevation plus other details from your city location.

Track the satellite on the map from your city or location and see movement details for azimuth, elevation, latitude, longitude, range, height, and movement on the map or in text.







IsCatalogInMostPopularTable: catalog: 47675, numindb: 18
Update: records affected: 1



GetName: 47675 STARLINK-2078

Hit Count: updated at: Fri, 16 Apr 2021 10:37:48 GMT